Theta_e
328 329 331 319 306 306 301 300 307 303 300 299 299 298 292 290 291 296 293 294 295 296 300 303 318 330 339 338 340 341 341 341 341 342 342 342 342 341 341 341 340 340 339 339 339 339 338 336 335
326 326 326 314 300 298 297 301 299 294 294 295 294 295 292 287 290 291 290 293 296 297 299 303 319 334 338 339 339 339 339 339 340 340 340 340 339 338 337 337 337 337 339 339 337 336 336 336 333
325 325 315 306 301 297 294 294 294 291 291 293 288 290 287 284 290 288 292 295 296 297 298 302 317 330 338 338 337 336 336 335 336 336 336 336 335 334 332 332 332 332 334 334 332 330 331 331 330
318 317 315 301 293 286 290 289 289 291 292 289 288 284 286 289 289 291 294 295 295 296 298 302 315 323 330 332 333 332 332 331 331 332 331 331 330 329 328 328 327 328 330 329 327 327 326 326 327
318 311 299 296 281 282 286 288 289 287 287 286 286 283 284 290 292 293 293 294 293 295 297 300 310 315 322 325 327 327 327 327 326 326 326 326 325 324 324 324 324 324 324 324 324 323 323 322 322
307 307 295 293 284 283 284 285 286 286 286 285 286 283 285 291 290 292 293 293 294 294 296 299 302 307 313 316 319 320 321 321 320 320 319 319 319 320 320 320 320 320 319 319 319 320 320 319 319
304 302 293 290 283 283 283 286 283 285 285 283 285 283 285 287 291 292 293 294 293 294 295 297 299 300 303 308 310 312 313 312 312 312 312 312 311 312 313 314 315 315 314 314 314 316 316 316 316
307 302 292 289 287 281 284 284 285 284 283 288 285 284 284 287 291 292 292 293 293 293 294 295 297 298 298 299 303 305 306 305 305 303 303 304 305 305 306 306 309 310 310 311 311 311 312 313 314
304 297 285 283 286 282 284 284 286 287 284 285 285 285 287 287 291 290 290 291 293 293 293 295 295 296 297 297 297 299 299 299 298 298 299 301 299 299 299 301 302 304 305 308 308 307 306 309 310
298 293 283 284 287 283 283 284 284 284 284 284 284 286 286 286 289 288 288 288 290 290 292 293 295 295 294 295 295 295 295 295 295 296 297 297 298 297 297 299 299 300 300 303 306 305 305 306 304
291 285 285 285 287 286 283 283 284 283 283 283 283 285 286 285 285 287 288 288 289 291 292 291 292 293 293 293 294 294 294 294 294 295 298 299 298 298 298 298 297 298 299 297 302 302 301 301 300
285 287 288 288 289 287 284 285 282 283 285 285 286 286 286 285 285 285 286 288 289 290 291 292 292 292 293 294 293 293 293 294 294 294 296 298 296 296 296 295 296 296 297 296 299 300 299 299 299
288 287 288 288 287 286 286 283 284 283 286 286 286 286 285 285 286 287 287 289 289 289 290 291 292 291 292 291 292 292 291 292 293 294 294 295 295 295 295 294 295 295 295 295 295 298 298 296 296
291 290 288 289 288 286 284 284 283 286 287 286 287 287 287 286 287 288 287 287 288 289 290 290 290 292 292 291 292 292 292 291 292 291 293 293 293 294 294 294 294 294 294 294 294 294 296 295 294
291 289 291 290 290 289 291 286 283 289 288 288 288 288 289 289 289 288 289 289 289 290 290 291 290 290 291 290 291 290 290 290 290 290 291 291 292 291 292 293 293 293 294 294 294 293 294 295 293
291 291 291 288 290 291 288 288 290 290 288 288 290 290 290 291 291 290 290 290 290 290 290 291 290 290 290 290 290 289 290 290 290 290 291 291 292 292 293 292 292 293 293 293 292 293 292 292 293
292 286 286 288 288 287 288 290 293 291 289 289 290 290 290 290 291 292 292 291 290 290 290 290 290 289 289 290 290 290 290 290 290 290 291 291 292 292 292 292 292 293 292 292 292 291 291 291 290
283 284 286 285 287 286 286 289 292 291 290 290 291 291 291 291 291 293 293 293 292 292 291 290 290 290 290 290 290 290 290 290 290 290 291 292 292 292 292 292 291 292 291 291 291 291 291 290 290
285 284 284 287 286 285 286 287 289 292 290 290 291 290 291 291 294 293 293 294 293 292 291 291 290 290 290 290 290 290 290 291 292 292 292 292 292 292 292 291 291 291 290 290 290 290 290 289 290
286 285 285 287 286 286 286 285 289 291 292 292 292 291 291 291 292 292 291 292 293 292 292 292 291 291 292 292 293 292 291 292 292 292 292 292 292 292 292 292 291 291 290 290 290 290 289 288 289
285 283 282 281 286 287 285 289 287 289 292 294 295 294 293 291 290 290 291 291 292 293 294 294 294 294 293 293 293 292 292 292 291 291 292 292 293 293 292 292 292 291 291 289 289 289 289 287 288
283 285 284 284 284 284 286 284 291 288 287 290 294 294 292 292 291 290 290 291 291 292 294 294 295 294 293 293 292 291 289 288 290 291 292 292 293 292 292 292 292 291 291 290 289 289 288 288 286
284 285 284 284 283 282 284 284 293 285 286 288 290 295 295 293 292 290 290 291 292 293 293 293 293 293 293 292 292 292 291 292 292 292 292 293 292 293 292 292 292 291 291 291 289 288 288 288 287
286 284 285 284 284 285 280 281 288 290 289 291 293 292 296 296 293 292 292 292 292 293 293 293 292 292 293 293 292 292 291 291 291 291 291 292 292 292 292 292 292 292 291 291 290 290 289 289 288
285 285 287 286 285 284 280 280 288 293 293 291 291 293 294 297 295 292 291 291 291 292 293 292 292 291 292 292 292 292 292 292 291 291 291 291 291 291 292 292 292 292 292 292 292 291 290 289 288
282 282 284 279 281 282 276 279 288 292 292 291 293 293 294 294 295 293 292 292 291 291 292 292 291 290 291 291 291 292 292 292 292 292 292 291 292 292 293 292 292 292 292 292 292 291 291 290 289
282 283 280 278 269 276 283 285 288 292 291 291 290 291 292 293 294 294 293 292 292 292 291 292 292 291 291 291 291 291 291 291 291 292 292 292 292 292 292 292 292 292 292 291 291 290 290 290 290
280 281 281 283 278 279 283 282 284 289 290 290 291 291 292 293 294 294 294 293 293 293 292 292 292 292 291 291 291 291 291 291 291 292 291 291 292 292 291 291 291 291 291 291 290 290 290 290 290
276 278 278 280 280 280 279 285 292 289 290 289 292 293 294 294 294 295 294 294 294 294 293 292 292 291 291 291 291 291 291 291 291 290 291 291 291 291 291 290 290 290 290 290 290 289 289 288 288
281 281 282 282 280 278 276 278 291 291 289 286 289 292 293 295 295 296 296 296 294 293 293 293 292 291 291 292 291 291 291 291 290 290 290 291 291 291 291 290 290 290 289 290 289 288 288 288 287
Wind_Speed
18 9 6 4 8 8 17 8 5 8 5 7 7 7 9 7 7 4 7 12 15 13 15 18 28 32 9 13 13 13 15 16 16 17 17 18 18 18 19 19 18 17 14 15 16 18 17 15 15
11 9 1 3 9 14 7 2 9 9 9 4 7 4 8 6 6 4 6 16 15 12 13 17 29 24 15 15 15 17 17 18 18 20 20 19 19 19 19 19 19 18 18 18 19 18 16 17 17
11 7 4 4 8 12 3 11 10 6 9 9 4 10 5 4 7 6 11 13 12 11 13 15 26 28 20 21 21 21 20 19 19 19 19 19 19 19 18 18 17 15 17 17 17 17 15 18 16
5 6 4 9 3 7 6 7 9 4 6 11 6 6 4 9 4 9 11 10 10 10 11 14 23 26 23 22 22 21 20 21 21 20 19 19 20 20 18 17 15 15 16 16 16 16 16 16 16
6 5 7 1 4 3 6 8 8 6 3 8 8 2 3 5 9 10 10 8 9 9 9 11 18 22 22 22 21 22 21 21 20 19 18 18 17 16 16 16 16 16 16 16 16 16 16 16 17
3 4 6 7 6 2 2 6 5 6 6 4 3 3 2 7 9 11 9 8 7 7 8 8 12 17 22 20 18 20 21 19 18 16 16 16 16 16 16 17 17 17 16 16 16 17 16 16 17
5 1 5 7 5 4 2 2 3 3 2 2 2 1 1 5 9 10 9 7 7 8 8 7 9 11 14 18 18 19 18 17 16 15 15 16 17 17 18 18 17 17 17 16 16 17 17 17 17
3 4 5 7 2 3 2 2 2 4 2 3 2 2 1 2 9 7 9 6 7 9 9 8 9 8 8 8 15 16 16 15 14 11 10 13 15 17 17 16 18 18 17 17 16 16 18 18 16
7 4 4 3 2 1 1 0 2 2 2 3 2 2 4 7 8 4 6 6 7 7 8 9 8 8 7 7 7 10 12 12 10 8 7 8 7 10 13 16 16 17 17 17 16 14 11 16 17
9 5 4 2 4 3 3 3 3 2 1 0 2 3 2 2 5 3 5 6 9 9 8 7 8 8 6 6 7 8 8 7 5 7 5 4 6 6 8 8 12 15 12 15 15 14 12 9 7
8 6 7 5 6 6 3 2 1 1 1 2 3 3 3 2 2 3 4 6 7 7 7 7 6 6 6 6 4 3 3 4 4 7 4 4 4 4 5 5 6 6 9 7 9 9 8 11 8
8 7 4 7 6 5 4 3 1 4 2 3 2 1 1 3 3 1 1 3 5 6 7 8 7 6 6 3 4 4 3 3 2 5 4 3 3 6 6 5 7 6 6 7 7 6 9 10 11
12 6 8 7 5 4 5 2 2 6 4 4 4 5 5 3 2 2 2 1 2 5 7 7 7 6 6 4 5 4 5 4 5 4 6 5 4 6 6 6 7 6 7 6 6 7 7 9 10
8 10 4 1 0 3 1 2 2 6 7 7 8 8 9 9 7 4 5 3 1 2 5 5 6 6 5 6 6 4 4 5 5 5 6 7 5 6 5 6 7 7 6 6 6 6 6 6 8
5 4 5 2 2 3 6 5 8 8 13 10 11 10 11 11 11 10 8 6 5 2 1 4 5 6 4 6 5 4 3 5 3 5 6 6 6 5 6 5 6 5 6 7 6 6 5 5 7
4 4 6 7 3 2 3 2 6 11 12 12 12 11 10 11 12 11 11 10 10 9 7 5 4 5 5 5 4 3 3 2 3 3 3 6 3 3 3 4 5 5 5 5 6 5 5 4 4
5 9 8 2 2 5 7 11 7 12 12 10 10 10 11 11 13 13 13 12 10 9 8 8 6 6 6 4 3 3 4 2 2 2 2 3 4 5 5 5 5 5 5 5 5 6 5 4 3
10 11 10 9 5 6 11 17 5 12 14 13 12 12 13 13 14 14 15 13 12 10 9 8 7 7 6 4 4 3 2 2 2 3 3 4 4 4 5 5 4 4 4 5 5 5 5 4 2
1 5 9 9 4 13 6 12 12 14 16 16 15 14 14 14 12 13 14 15 14 13 12 12 11 11 8 6 7 6 7 6 5 4 6 5 5 5 5 4 4 3 4 5 3 3 4 4 3
4 4 6 6 2 9 13 23 16 14 19 18 16 16 15 14 14 15 16 16 16 16 15 15 14 14 12 9 8 7 7 6 6 6 6 6 5 4 4 4 3 3 3 4 3 2 2 3 4
2 4 5 6 14 6 15 7 3 8 15 16 18 16 16 17 16 16 17 18 17 18 18 17 17 17 15 14 8 7 7 6 7 8 7 7 7 6 5 6 5 4 3 3 3 3 2 2 2
4 4 5 8 10 4 9 5 4 5 11 17 17 19 18 19 18 18 18 19 19 18 17 18 17 17 15 16 11 12 10 10 9 8 7 8 9 9 7 6 5 5 3 3 3 1 1 2 2
4 7 7 7 3 3 3 2 1 3 7 17 20 21 21 19 19 20 21 20 19 17 16 15 17 17 17 15 15 11 13 8 8 8 10 9 9 10 10 8 8 6 5 5 5 4 3 1 1
9 7 6 3 3 3 3 3 7 3 3 3 6 19 21 22 21 20 19 19 17 17 17 17 18 18 17 16 16 16 15 12 9 9 8 8 8 8 11 10 9 9 7 7 6 5 5 4 3
6 8 4 2 3 2 3 5 12 10 8 7 3 9 17 19 20 19 20 19 18 20 20 18 20 20 19 19 18 18 17 15 14 12 10 11 9 9 11 12 10 8 8 8 7 7 7 6 5
2 3 4 7 5 7 2 8 3 4 5 4 9 9 8 17 17 18 19 19 19 20 21 20 20 21 21 20 20 17 18 12 12 14 11 10 10 10 12 12 11 11 10 9 8 6 6 7 7
2 2 2 0 2 3 4 6 12 2 6 9 12 9 13 14 16 18 18 19 20 21 23 23 22 21 21 22 19 20 18 19 15 16 13 11 12 10 12 13 13 12 11 10 9 7 8 8 8
3 2 2 3 5 7 5 4 7 5 3 3 5 8 11 12 14 14 16 19 19 20 20 22 23 24 23 22 20 18 20 19 18 15 17 16 13 14 13 13 13 12 12 11 11 9 9 9 7
5 5 5 3 4 5 7 4 5 8 2 3 5 5 6 10 13 13 14 16 17 18 20 21 22 24 23 23 21 21 20 20 18 17 17 17 16 15 15 15 14 14 13 12 11 11 10 11 10
3 4 7 5 5 5 5 11 17 1 5 6 9 8 7 7 9 11 13 13 15 18 19 22 21 22 24 22 22 23 21 20 20 20 20 18 18 17 16 15 14 14 13 13 13 12 11 11 11
Wind_Direction
299 303 291 225 228 224 241 123 106 103 69 33 36 23 89 54 35 17 338 1 342 336 331 331 337 333 136 107 86 73 78 79 77 76 74 73 71 68 62 59 58 62 70 64 61 54 48 45 47
302 298 258 246 250 209 214 104 94 59 22 34 39 11 50 73 19 52 360 342 342 337 338 342 349 345 102 88 83 82 75 72 69 67 64 66 65 65 61 57 55 52 55 59 57 55 47 61 53
268 272 213 243 222 241 131 43 64 70 33 21 66 32 32 31 31 360 345 335 341 350 348 347 359 9 78 80 76 71 69 70 66 64 62 59 59 59 56 55 55 57 54 57 56 53 47 54 51
252 194 232 225 74 58 52 61 360 20 55 37 356 49 79 28 22 351 342 337 351 359 356 351 7 16 40 60 70 72 67 65 61 59 60 60 57 57 55 58 60 57 56 61 60 60 61 61 56
225 255 216 343 91 38 35 11 29 26 19 27 348 82 67 56 352 351 346 1 1 7 7 5 8 21 37 51 61 67 65 65 62 58 60 62 63 65 64 63 62 61 62 62 59 56 57 59 56
204 278 221 163 99 112 58 11 334 55 35 8 60 54 11 343 3 337 351 357 14 12 22 25 12 20 35 42 53 65 66 65 64 66 66 66 66 63 63 62 61 60 60 60 59 57 57 59 62
59 54 70 105 121 120 59 322 14 39 59 47 329 227 128 49 355 342 339 349 35 21 21 29 29 32 28 39 45 60 65 68 67 65 66 67 64 62 59 57 58 59 59 61 64 62 60 64 66
41 61 78 16 98 103 48 65 17 12 332 138 117 232 171 17 335 348 331 5 36 25 31 31 34 40 45 32 41 55 60 67 65 64 64 78 72 64 55 57 54 56 57 60 65 70 68 67 69
304 104 85 48 10 96 203 99 67 357 254 318 100 328 318 307 319 41 352 12 35 33 32 43 37 29 52 50 45 57 58 56 55 59 45 64 61 68 68 60 57 57 57 58 63 66 71 90 69
356 68 108 333 356 116 82 9 18 298 283 97 303 195 279 311 347 47 38 12 26 15 32 42 53 42 30 53 42 40 50 48 40 32 11 66 73 76 90 79 69 58 59 61 60 59 54 58 58
20 65 113 67 97 123 121 158 249 307 296 222 296 314 3 13 252 44 43 23 7 3 36 39 48 54 53 49 43 41 33 45 34 28 34 22 55 55 61 59 50 45 49 48 55 57 56 53 61
91 68 96 162 159 162 175 108 148 218 239 182 228 314 309 335 340 81 343 31 354 14 22 39 51 57 55 48 61 37 31 58 55 29 35 24 52 65 61 59 57 52 50 55 61 68 67 71 70
66 74 68 87 97 70 129 190 268 226 201 203 214 208 191 206 250 272 263 226 8 20 22 33 45 53 50 86 57 59 59 24 53 56 33 59 62 69 63 64 63 55 55 49 63 68 74 72 71
57 74 99 58 249 152 50 298 302 206 197 206 217 216 210 201 200 198 233 163 124 29 4 34 58 61 80 56 75 76 77 63 54 45 56 49 52 68 65 69 65 58 53 57 62 69 80 86 87
154 6 164 169 304 275 289 217 231 180 190 210 211 221 213 211 200 203 201 183 178 161 332 331 87 73 75 77 72 72 56 66 58 65 50 53 53 46 62 57 60 46 55 56 53 73 82 100 96
253 251 323 58 346 113 197 340 197 177 196 212 204 210 212 209 208 209 196 192 187 186 189 198 144 137 139 134 122 98 67 64 84 77 62 60 60 61 60 60 61 56 53 66 56 47 80 70 89
59 2 2 148 47 316 253 317 180 188 209 224 214 212 215 213 209 203 199 201 195 192 187 184 177 168 147 130 108 107 105 80 50 75 90 104 86 79 78 71 65 64 64 59 62 63 49 83 96
342 355 343 352 11 316 260 265 224 211 218 227 220 218 213 212 209 200 196 197 194 192 189 188 180 171 158 147 140 127 127 166 179 155 141 129 110 101 100 93 79 74 75 71 67 67 66 49 90
248 301 312 335 16 326 274 276 273 207 226 230 224 216 217 215 199 191 195 194 194 199 196 195 188 180 179 180 186 184 188 186 181 169 163 159 149 139 125 124 115 96 89 83 71 69 59 55 352
326 326 1 302 307 320 309 294 263 210 219 223 224 223 216 211 202 195 194 196 198 200 200 199 201 196 199 201 200 200 192 196 188 180 184 177 158 147 147 140 136 144 119 98 79 34 96 68 14
48 5 1 323 315 93 313 268 194 218 208 218 226 227 220 214 211 204 203 201 201 205 204 205 205 202 202 207 200 204 194 196 195 197 191 187 183 180 174 177 172 166 156 150 147 108 13 112 69
323 17 316 327 352 351 12 289 261 181 219 225 223 223 224 214 210 208 207 209 207 208 206 207 207 208 207 206 205 206 201 203 204 198 194 189 194 194 193 197 194 186 183 173 151 125 87 297 107
351 330 322 319 345 289 37 287 241 136 247 235 225 223 220 222 216 212 208 207 208 207 207 209 211 213 213 210 212 212 219 220 202 199 193 197 199 206 203 203 201 200 196 188 188 184 207 216 277
312 285 247 286 307 326 123 29 290 186 241 358 244 216 218 212 214 215 214 208 209 205 204 203 206 211 211 212 212 219 216 219 212 204 198 200 203 205 209 207 209 207 205 200 203 208 214 220 235
282 298 306 338 354 317 106 269 259 285 271 242 262 218 210 216 209 209 208 207 208 207 203 205 206 210 208 208 212 214 218 216 217 206 203 202 202 204 206 204 207 210 212 205 207 209 219 218 226
33 351 323 309 307 305 23 233 243 266 212 244 236 234 229 208 210 212 211 209 210 209 207 209 209 210 207 209 211 213 215 217 217 213 205 211 207 207 204 202 205 208 209 210 207 217 222 225 227
70 209 106 61 113 274 230 260 277 252 269 243 233 225 221 219 213 215 213 213 210 210 211 207 210 215 212 212 210 211 212 214 215 214 212 211 210 206 204 202 204 207 208 210 209 212 221 224 227
295 26 240 152 287 283 222 260 247 269 261 244 249 251 242 230 221 218 218 220 222 218 213 212 211 212 213 212 213 213 212 212 212 212 213 212 211 209 203 201 204 205 209 210 212 217 220 229 228
163 200 214 318 249 266 292 240 233 253 308 323 319 316 262 220 226 223 224 224 225 223 219 217 217 214 214 214 211 213 214 213 212 213 213 211 208 205 206 205 205 206 206 206 210 215 221 225 230
321 286 193 221 201 243 280 267 259 311 313 333 300 291 286 277 256 235 225 222 223 227 223 223 221 219 220 216 215 215 214 212 213 214 213 208 208 206 205 204 206 206 205 206 208 213 216 224 230